Weather History for KUNI - November, 2011

Change the Weather History Date:

Monday, November 7, 2011

  Actual Average (KPKB) Record (KPKB)
Temperature  
Mean Temperature 49 °F 48 °F  
Max Temperature 68 °F 59 °F 82 °F (1938)
Min Temperature 30 °F 38 °F 18 °F (1930)
Degree Days  
Heating Degree Days 16 17  
Month to date heating degree days 110  
Cooling Degree Days 0 0  
Month to date cooling degree days 0  
Moisture  
Dew Point 36 °F    
Average Humidity 72    
Maximum Humidity 93    
Minimum Humidity 37    
Precipitation  
Precipitation 0.00 in 0.11 in 0.97 in (2013)
Month to date precipitation 0.76  
Sea Level Pressure  
Sea Level Pressure 30.30 in    
Wind  
Wind Speed 2 mph (SSW)    
Max Wind Speed 8 mph    
Max Gust Speed -    
Visibility 10 miles    
Events      
T = Trace of Precipitation, MM = Missing Value Source: NWS Daily Summary

Daily Weather History Graph

Daily Weather History Graph

Search for Another Location

Airport or City:

Trip Planner

Search our weather history database for the weather conditions in past years. The results will help you decide how hot, cold, wet, or windy it might be!

Date:

Astronomy

Nov. 07, 2011 Rise Set
Actual Time 7:02 AM EST 5:21 PM EST
Civil Twilight 6:34 AM EST 5:49 PM EST
Nautical Twilight 6:02 AM EST 6:21 PM EST
Astronomical Twilight 5:31 AM EST 6:53 PM EST
Moon 3:31 PM EST (11/7) 4:05 AM EST (11/7)
Length of Visible Light 11h 14m
Length of Day
10h 18m
Waxing Gibbous, 91% of the Moon is Illuminated
Nov 7
Waxing Gibbous
Nov 10
Full
Nov 18
Last Quarter
Nov 25
New
Dec 2
First Quarter

Hourly Weather History & Observations

Time (EST) Temp. Windchill Dew Point Humidity Pressure Visibility Wind Dir Wind Speed Gust Speed Precip Events Conditions
12:15 AM 32.0 °F - 30.2 °F 93% 30.30 in 10.0 mi Calm Calm - N/A   Clear
12:35 AM 32.0 °F - 30.2 °F 93% 30.30 in 10.0 mi Calm Calm - N/A   Clear
12:55 AM 32.0 °F - 30.2 °F 93% 30.30 in 10.0 mi Calm Calm - N/A   Clear
1:15 AM 32.0 °F - 30.2 °F 93% 30.31 in 10.0 mi Calm Calm - N/A   Clear
1:35 AM 32.0 °F - 28.4 °F 87% 30.31 in 10.0 mi Calm Calm - N/A   Clear
1:55 AM 32.0 °F - 28.4 °F 87% 30.31 in 10.0 mi Calm Calm - N/A   Clear
2:15 AM 32.0 °F - 28.4 °F 87% 30.31 in 10.0 mi Calm Calm - N/A   Clear
2:35 AM 30.2 °F - 28.4 °F 93% 30.32 in 10.0 mi Calm Calm - N/A   Clear
2:55 AM 30.2 °F - 28.4 °F 93% 30.32 in 10.0 mi Calm Calm - N/A   Clear
3:15 AM 30.2 °F - 28.4 °F 93% 30.32 in 10.0 mi Calm Calm - N/A   Clear
3:35 AM 30.2 °F - 28.4 °F 93% 30.32 in 10.0 mi Calm Calm - N/A   Clear
3:55 AM 30.2 °F - 28.4 °F 93% 30.32 in 10.0 mi Calm Calm - N/A   Clear
4:15 AM 30.2 °F - 28.4 °F 93% 30.32 in 10.0 mi Calm Calm - N/A   Clear
4:35 AM 30.2 °F 26.7 °F 28.4 °F 93% 30.33 in 10.0 mi West 3.5 mph - N/A   Clear
4:55 AM 30.2 °F - 28.4 °F 93% 30.33 in 10.0 mi Calm Calm - N/A   Clear
5:15 AM 30.2 °F - 28.4 °F 93% 30.34 in 10.0 mi Calm Calm - N/A   Clear
5:35 AM 30.2 °F - 28.4 °F 93% 30.34 in 10.0 mi Calm Calm - N/A   Clear
5:55 AM 30.2 °F - 28.4 °F 93% 30.34 in 10.0 mi Calm Calm - N/A   Clear
6:15 AM 30.2 °F - 28.4 °F 93% 30.34 in 10.0 mi Calm Calm - N/A   Clear
6:35 AM 30.2 °F - 28.4 °F 93% 30.34 in 10.0 mi Calm Calm - N/A   Clear
7:35 AM 30.2 °F 26.7 °F 28.4 °F 93% 30.35 in 10.0 mi West 3.5 mph - N/A   Clear
7:55 AM 32.0 °F 28.7 °F 30.2 °F 93% 30.36 in 10.0 mi West 3.5 mph - N/A   Clear
8:15 AM 33.8 °F - 32.0 °F 93% 30.36 in 10.0 mi Calm Calm - N/A   Clear
8:35 AM 37.4 °F - 33.8 °F 87% 30.37 in 10.0 mi Calm Calm - N/A   Clear
8:55 AM 44.6 °F 42.2 °F 33.8 °F 66% 30.37 in 10.0 mi SW 4.6 mph - N/A   Clear
9:15 AM 48.2 °F - 33.8 °F 58% 30.37 in 10.0 mi South 8.1 mph - N/A   Clear
9:35 AM 50.0 °F - 35.6 °F 58% 30.37 in 10.0 mi SSW 5.8 mph - N/A   Clear
10:15 AM 53.6 °F - 35.6 °F 51% 30.37 in 10.0 mi South 8.1 mph - N/A   Clear
10:35 AM 55.4 °F - 37.4 °F 51% 30.37 in 10.0 mi South 5.8 mph - N/A   Clear
10:55 AM 59.0 °F - 39.2 °F 48% 30.36 in 10.0 mi SSW 8.1 mph - N/A   Clear
11:15 AM 60.8 °F - 41.0 °F 48% 30.36 in 10.0 mi SSW 6.9 mph - N/A   Clear
11:35 AM 60.8 °F - 41.0 °F 48% 30.35 in 10.0 mi SSW 6.9 mph - N/A   Clear
12:15 PM 62.6 °F - 42.8 °F 48% 30.33 in 10.0 mi SSW 5.8 mph - N/A   Clear
12:35 PM 62.6 °F - 41.0 °F 45% 30.32 in 10.0 mi WSW 4.6 mph - N/A   Clear
12:55 PM 64.4 °F - 42.8 °F 45% 30.31 in 10.0 mi WSW 6.9 mph - N/A   Clear
1:15 PM 64.4 °F - 42.8 °F 45% 30.31 in 10.0 mi South 6.9 mph - N/A   Clear
1:35 PM 64.4 °F - 42.8 °F 45% 30.30 in 10.0 mi SSE 5.8 mph - N/A   Clear
1:55 PM 66.2 °F - 42.8 °F 43% 30.29 in 10.0 mi SSW 6.9 mph - N/A   Clear
2:15 PM 66.2 °F - 42.8 °F 43% 30.27 in 10.0 mi SSE 4.6 mph - N/A   Clear
2:35 PM 68.0 °F - 41.0 °F 37% 30.27 in 10.0 mi SW 3.5 mph - N/A   Clear
2:55 PM 66.2 °F - 41.0 °F 40% 30.26 in 10.0 mi South 3.5 mph - N/A   Clear
3:15 PM 68.0 °F - 41.0 °F 37% 30.26 in 10.0 mi South 5.8 mph - N/A   Clear
3:35 PM 68.0 °F - 41.0 °F 37% 30.26 in 10.0 mi South 5.8 mph - N/A   Clear
4:15 PM 66.2 °F - 41.0 °F 40% 30.26 in 10.0 mi South 3.5 mph - N/A   Clear
4:35 PM 64.4 °F - 41.0 °F 42% 30.26 in 10.0 mi South 4.6 mph - N/A   Clear
4:55 PM 64.4 °F - 41.0 °F 42% 30.26 in 10.0 mi South 3.5 mph - N/A   Clear
5:15 PM 62.6 °F - 41.0 °F 45% 30.26 in 10.0 mi Calm Calm - N/A   Clear
5:35 PM 59.0 °F - 41.0 °F 51% 30.26 in 10.0 mi SSE 3.5 mph - N/A   Clear
5:55 PM 55.4 °F - 41.0 °F 58% 30.26 in 10.0 mi South 3.5 mph - N/A   Clear
6:15 PM 53.6 °F - 41.0 °F 62% 30.27 in 10.0 mi Calm Calm - N/A   Clear
6:55 PM 51.8 °F - 42.8 °F 71% 30.27 in 10.0 mi Calm Calm - N/A   Clear
7:15 PM 50.0 °F - 41.0 °F 71% 30.27 in 10.0 mi Calm Calm - N/A   Clear
7:35 PM 48.2 °F - 41.0 °F 76% 30.26 in 10.0 mi Calm Calm - N/A   Clear
7:55 PM 46.4 °F - 41.0 °F 81% 30.26 in 10.0 mi Calm Calm - N/A   Clear
8:15 PM 46.4 °F - 41.0 °F 81% 30.26 in 10.0 mi Calm Calm - N/A   Clear
8:35 PM 44.6 °F - 39.2 °F 81% 30.26 in 10.0 mi Calm Calm - N/A   Clear
8:55 PM 44.6 °F - 41.0 °F 87% 30.26 in 10.0 mi Calm Calm - N/A   Clear
9:15 PM 42.8 °F - 39.2 °F 87% 30.26 in 10.0 mi Calm Calm - N/A   Clear
9:35 PM 42.8 °F - 39.2 °F 87% 30.26 in 10.0 mi Calm Calm - N/A   Clear
9:55 PM 42.8 °F - 37.4 °F 81% 30.26 in 10.0 mi Calm Calm - N/A   Clear
10:15 PM 41.0 °F 39.0 °F 37.4 °F 87% 30.26 in 10.0 mi West 3.5 mph - N/A   Clear
11:15 PM 41.0 °F - 35.6 °F 81% 30.24 in 10.0 mi Calm Calm - N/A   Clear
11:35 PM 39.2 °F - 35.6 °F 87% 30.25 in 10.0 mi Calm Calm - N/A   Clear
11:55 PM 39.2 °F - 35.6 °F 87% 30.25 in 10.0 mi Calm Calm - N/A   Clear